Year,Month,Day,Hour,Minute,Value (Times are PST for temperature in C)
2015,06,11,00,00,12.80
2015,06,11,00,01,12.80
2015,06,11,00,02,12.80
2015,06,11,00,03,12.80
2015,06,11,00,04,12.80
2015,06,11,00,05,12.80
2015,06,11,00,06,12.80
2015,06,11,00,07,12.80
2015,06,11,00,08,12.80
2015,06,11,00,09,12.80
2015,06,11,00,10,12.80
2015,06,11,00,11,12.80
2015,06,11,00,12,12.80
2015,06,11,00,13,12.80
2015,06,11,00,14,12.80
2015,06,11,00,15,12.80
2015,06,11,00,16,12.80
2015,06,11,00,17,12.80
2015,06,11,00,18,12.80
2015,06,11,00,19,12.80
2015,06,11,00,20,12.80
2015,06,11,00,21,12.80
2015,06,11,00,22,12.80
2015,06,11,00,23,12.80
2015,06,11,00,24,12.80
2015,06,11,00,25,12.80
2015,06,11,00,26,12.80
2015,06,11,00,27,12.80
2015,06,11,00,28,12.80
2015,06,11,00,29,12.80
2015,06,11,00,30,12.80
2015,06,11,00,31,12.80
2015,06,11,00,32,12.80
2015,06,11,00,33,12.80
2015,06,11,00,34,12.80
2015,06,11,00,35,12.80
2015,06,11,00,36,12.80
2015,06,11,00,37,12.80
2015,06,11,00,38,12.80
2015,06,11,00,39,12.80
2015,06,11,00,40,12.80
2015,06,11,00,41,12.80
2015,06,11,00,42,12.80
2015,06,11,00,43,12.80
2015,06,11,00,44,12.80
2015,06,11,00,45,12.80
2015,06,11,00,46,12.80
2015,06,11,00,47,12.80
2015,06,11,00,48,12.80
2015,06,11,00,49,12.80
2015,06,11,00,50,12.80
2015,06,11,00,51,12.80
2015,06,11,00,52,12.80
2015,06,11,00,53,12.80
2015,06,11,00,54,12.80
2015,06,11,00,55,12.80
2015,06,11,00,56,12.80
2015,06,11,00,57,12.80
2015,06,11,00,58,12.80
2015,06,11,00,59,12.80
2015,06,11,01,00,12.80
2015,06,11,01,01,12.80
2015,06,11,01,02,12.80
2015,06,11,01,03,12.80
2015,06,11,01,04,12.80
2015,06,11,01,05,12.80
2015,06,11,01,06,12.80
2015,06,11,01,07,12.80
2015,06,11,01,08,12.80
2015,06,11,01,09,12.80
2015,06,11,01,10,12.80
2015,06,11,01,11,12.80
2015,06,11,01,12,12.80
2015,06,11,01,13,12.80
2015,06,11,01,14,12.80
2015,06,11,01,15,12.80
2015,06,11,01,16,12.80
2015,06,11,01,17,12.80
2015,06,11,01,18,12.80
2015,06,11,01,19,12.80
2015,06,11,01,20,12.70
2015,06,11,01,21,12.70
2015,06,11,01,22,12.70
2015,06,11,01,23,12.70
2015,06,11,01,24,12.70
2015,06,11,01,25,12.70
2015,06,11,01,26,12.70
2015,06,11,01,27,12.70
2015,06,11,01,28,12.70
2015,06,11,01,29,12.70
2015,06,11,01,30,12.70
2015,06,11,01,31,12.70
2015,06,11,01,32,12.70
2015,06,11,01,33,12.70
2015,06,11,01,34,12.70
2015,06,11,01,35,12.70
2015,06,11,01,36,12.70
2015,06,11,01,37,12.60
2015,06,11,01,38,12.60
2015,06,11,01,39,12.60
2015,06,11,01,40,12.60
2015,06,11,01,41,12.60
2015,06,11,01,42,12.60
2015,06,11,01,43,12.50
2015,06,11,01,44,12.50
2015,06,11,01,45,12.50
2015,06,11,01,46,12.50
2015,06,11,01,47,12.50
2015,06,11,01,48,12.50
2015,06,11,01,49,12.50
2015,06,11,01,50,12.50
2015,06,11,01,51,12.50
2015,06,11,01,52,12.50
2015,06,11,01,53,12.50
2015,06,11,01,54,12.50
2015,06,11,01,55,12.50
2015,06,11,01,56,12.50
2015,06,11,01,57,12.50
2015,06,11,01,58,12.50
2015,06,11,01,59,12.50
2015,06,11,02,00,12.50
2015,06,11,02,01,12.50
2015,06,11,02,02,12.50
2015,06,11,02,03,12.50
2015,06,11,02,04,12.50
2015,06,11,02,05,12.50
2015,06,11,02,06,12.50
2015,06,11,02,07,12.50
2015,06,11,02,08,12.50
2015,06,11,02,09,12.50
2015,06,11,02,10,12.50
2015,06,11,02,11,12.50
2015,06,11,02,12,12.50
2015,06,11,02,13,12.40
2015,06,11,02,14,12.40
2015,06,11,02,15,12.40
2015,06,11,02,16,12.40
2015,06,11,02,17,12.40
2015,06,11,02,18,12.40
2015,06,11,02,19,12.40
2015,06,11,02,20,12.40
2015,06,11,02,21,12.40
2015,06,11,02,22,12.40
2015,06,11,02,23,12.40
2015,06,11,02,24,12.40
2015,06,11,02,25,12.40
2015,06,11,02,26,12.40
2015,06,11,02,27,12.30
2015,06,11,02,28,12.30
2015,06,11,02,29,12.30
2015,06,11,02,30,12.30
2015,06,11,02,31,12.40
2015,06,11,02,32,12.40
2015,06,11,02,33,12.40
2015,06,11,02,34,12.40
2015,06,11,02,35,12.40
2015,06,11,02,36,12.40
2015,06,11,02,37,12.40
2015,06,11,02,38,12.40
2015,06,11,02,39,12.40
2015,06,11,02,40,12.40
2015,06,11,02,41,12.40
2015,06,11,02,42,12.40
2015,06,11,02,43,12.40
2015,06,11,02,44,12.40
2015,06,11,02,45,12.40
2015,06,11,02,46,12.40
2015,06,11,02,47,12.40
2015,06,11,02,48,12.30
2015,06,11,02,49,12.30
2015,06,11,02,50,12.30
2015,06,11,02,51,12.30
2015,06,11,02,52,12.30
2015,06,11,02,53,12.20
2015,06,11,02,54,12.20
2015,06,11,02,55,12.20
2015,06,11,02,56,12.10
2015,06,11,02,57,12.10
2015,06,11,02,58,12.10
2015,06,11,02,59,12.10
2015,06,11,03,00,12.10
2015,06,11,03,01,12.10
2015,06,11,03,02,12.10
2015,06,11,03,03,12.10
2015,06,11,03,04,12.10
2015,06,11,03,05,12.10
2015,06,11,03,06,12.10
2015,06,11,03,07,12.10
2015,06,11,03,08,12.10
2015,06,11,03,09,12.10
2015,06,11,03,10,12.10
2015,06,11,03,11,12.10
2015,06,11,03,12,12.10
2015,06,11,03,13,12.10
2015,06,11,03,14,12.10
2015,06,11,03,15,12.10
2015,06,11,03,16,12.10
2015,06,11,03,17,12.00
2015,06,11,03,18,12.00
2015,06,11,03,19,12.00
2015,06,11,03,20,12.00
2015,06,11,03,21,11.90
2015,06,11,03,22,11.90
2015,06,11,03,23,11.90
2015,06,11,03,24,11.90
2015,06,11,03,25,11.90
2015,06,11,03,26,11.80
2015,06,11,03,27,11.80
2015,06,11,03,28,11.80
2015,06,11,03,29,11.80
2015,06,11,03,30,11.80
2015,06,11,03,31,11.90
2015,06,11,03,32,11.90
2015,06,11,03,33,11.90
2015,06,11,03,34,12.00
2015,06,11,03,35,12.00
2015,06,11,03,36,12.00
2015,06,11,03,37,12.10
2015,06,11,03,38,12.10
2015,06,11,03,39,12.10
2015,06,11,03,40,12.20
2015,06,11,03,41,12.20
2015,06,11,03,42,12.20
2015,06,11,03,43,12.20
2015,06,11,03,44,12.20
2015,06,11,03,45,12.20
2015,06,11,03,46,12.20
2015,06,11,03,47,12.20
2015,06,11,03,48,12.20
2015,06,11,03,49,12.30
2015,06,11,03,50,12.30
2015,06,11,03,51,12.30
2015,06,11,03,52,12.30
2015,06,11,03,53,12.30
2015,06,11,03,54,12.20
2015,06,11,03,55,12.20
2015,06,11,03,56,12.20
2015,06,11,03,57,12.20
2015,06,11,03,58,12.20
2015,06,11,03,59,12.20
2015,06,11,04,00,12.10
2015,06,11,04,01,12.10
2015,06,11,04,02,12.10
2015,06,11,04,03,12.10
2015,06,11,04,04,12.10
2015,06,11,04,05,12.00
2015,06,11,04,06,12.00
2015,06,11,04,07,12.00
2015,06,11,04,08,12.00
2015,06,11,04,09,12.00
2015,06,11,04,10,12.00
2015,06,11,04,11,12.00
2015,06,11,04,12,12.00
2015,06,11,04,13,12.00
2015,06,11,04,14,12.00
2015,06,11,04,15,12.00
2015,06,11,04,16,12.00
2015,06,11,04,17,12.00
2015,06,11,04,18,12.00
2015,06,11,04,19,12.00
2015,06,11,04,20,12.00
2015,06,11,04,21,12.00
2015,06,11,04,22,12.00
2015,06,11,04,23,12.00
2015,06,11,04,24,12.00
2015,06,11,04,25,12.00
2015,06,11,04,26,12.00
2015,06,11,04,27,12.00
2015,06,11,04,28,12.00
2015,06,11,04,29,12.00
2015,06,11,04,30,12.00
2015,06,11,04,31,12.00
2015,06,11,04,32,11.90
2015,06,11,04,33,11.90
2015,06,11,04,34,11.90
2015,06,11,04,35,11.90
2015,06,11,04,36,11.90
2015,06,11,04,37,11.90
2015,06,11,04,38,11.90
2015,06,11,04,39,11.90
2015,06,11,04,40,11.90
2015,06,11,04,41,11.90
2015,06,11,04,42,11.90
2015,06,11,04,43,11.90
2015,06,11,04,44,11.90
2015,06,11,04,45,11.90
2015,06,11,04,46,11.90
2015,06,11,04,47,11.80
2015,06,11,04,48,11.80
2015,06,11,04,49,11.80
2015,06,11,04,50,11.80
2015,06,11,04,51,11.80
2015,06,11,04,52,11.80
2015,06,11,04,53,11.80
2015,06,11,04,54,11.80
2015,06,11,04,55,11.80
2015,06,11,04,56,11.80
2015,06,11,04,57,11.80
2015,06,11,04,58,11.80
2015,06,11,04,59,11.80
2015,06,11,05,00,11.80
2015,06,11,05,01,11.80
2015,06,11,05,02,11.80
2015,06,11,05,03,11.70
2015,06,11,05,04,11.70
2015,06,11,05,05,11.70
2015,06,11,05,06,11.70
2015,06,11,05,07,11.60
2015,06,11,05,08,11.60
2015,06,11,05,09,11.60
2015,06,11,05,10,11.60
2015,06,11,05,11,11.60
2015,06,11,05,12,11.60
2015,06,11,05,13,11.60
2015,06,11,05,14,11.60
2015,06,11,05,15,11.50
2015,06,11,05,16,11.40
2015,06,11,05,17,11.40
2015,06,11,05,18,11.40
2015,06,11,05,19,11.40
2015,06,11,05,20,11.30
2015,06,11,05,21,11.30
2015,06,11,05,22,11.30
2015,06,11,05,23,11.30
2015,06,11,05,24,11.30
2015,06,11,05,25,11.40
2015,06,11,05,26,11.40
2015,06,11,05,27,11.30
2015,06,11,05,28,11.30
2015,06,11,05,29,11.20
2015,06,11,05,30,11.20
2015,06,11,05,31,11.20
2015,06,11,05,32,11.20
2015,06,11,05,33,11.20
2015,06,11,05,34,11.20
2015,06,11,05,35,11.20
2015,06,11,05,36,11.20
2015,06,11,05,37,11.20
2015,06,11,05,38,11.20
2015,06,11,05,39,11.20
2015,06,11,05,40,11.20
2015,06,11,05,41,11.20
2015,06,11,05,42,11.20
2015,06,11,05,43,11.20
2015,06,11,05,44,11.30
2015,06,11,05,45,11.30
2015,06,11,05,46,11.30
2015,06,11,05,47,11.40
2015,06,11,05,48,11.40
2015,06,11,05,49,11.40
2015,06,11,05,50,11.40
2015,06,11,05,51,11.40
2015,06,11,05,52,11.50
2015,06,11,05,53,11.60
2015,06,11,05,54,11.60
2015,06,11,05,55,11.60
2015,06,11,05,56,11.60
2015,06,11,05,57,11.70
2015,06,11,05,58,11.80
2015,06,11,05,59,11.80
2015,06,11,06,00,11.80
2015,06,11,06,01,11.80
2015,06,11,06,02,11.80
2015,06,11,06,03,11.90
2015,06,11,06,04,12.00
2015,06,11,06,05,12.00
2015,06,11,06,06,12.10
2015,06,11,06,07,12.10
2015,06,11,06,08,12.20
2015,06,11,06,09,12.20
2015,06,11,06,10,12.30
2015,06,11,06,11,12.30
2015,06,11,06,12,12.30
2015,06,11,06,13,12.30
2015,06,11,06,14,12.30
2015,06,11,06,15,12.40
2015,06,11,06,16,12.40
2015,06,11,06,17,12.50
2015,06,11,06,18,12.50
2015,06,11,06,19,12.60
2015,06,11,06,20,12.70
2015,06,11,06,21,12.80
2015,06,11,06,22,12.80
2015,06,11,06,23,12.80
2015,06,11,06,24,12.80
2015,06,11,06,25,12.90
2015,06,11,06,26,12.90
2015,06,11,06,27,12.90
2015,06,11,06,28,12.90
2015,06,11,06,29,12.90
2015,06,11,06,30,12.90
2015,06,11,06,31,13.00
2015,06,11,06,32,13.00
2015,06,11,06,33,13.00
2015,06,11,06,34,13.00
2015,06,11,06,35,13.00
2015,06,11,06,36,13.10
2015,06,11,06,37,13.10
2015,06,11,06,38,13.10
2015,06,11,06,39,13.20
2015,06,11,06,40,13.20
2015,06,11,06,41,13.30
2015,06,11,06,42,13.30
2015,06,11,06,43,13.30
2015,06,11,06,44,13.30
2015,06,11,06,45,13.30
2015,06,11,06,46,13.40
2015,06,11,06,47,13.40
2015,06,11,06,48,13.50
2015,06,11,06,49,13.50
2015,06,11,06,50,13.50
2015,06,11,06,51,13.50
2015,06,11,06,52,13.50
2015,06,11,06,53,13.50
2015,06,11,06,54,13.60
2015,06,11,06,55,13.60
2015,06,11,06,56,13.70
2015,06,11,06,57,13.70
2015,06,11,06,58,13.70
2015,06,11,06,59,13.70
2015,06,11,07,00,13.70
2015,06,11,07,01,13.70
2015,06,11,07,02,13.80
2015,06,11,07,03,13.80
2015,06,11,07,04,13.90
2015,06,11,07,05,13.90
2015,06,11,07,06,14.00
2015,06,11,07,07,14.00
2015,06,11,07,08,14.10
2015,06,11,07,09,14.10
2015,06,11,07,10,14.20
2015,06,11,07,11,14.20
2015,06,11,07,12,14.20
2015,06,11,07,13,14.20
2015,06,11,07,14,14.30
2015,06,11,07,15,14.40
2015,06,11,07,16,14.40
2015,06,11,07,17,14.40
2015,06,11,07,18,14.50
2015,06,11,07,19,14.60
2015,06,11,07,20,14.60
2015,06,11,07,21,14.70
2015,06,11,07,22,14.70
2015,06,11,07,23,14.80
2015,06,11,07,24,14.80
2015,06,11,07,25,14.80
2015,06,11,07,26,14.90
2015,06,11,07,27,15.00
2015,06,11,07,28,15.10
2015,06,11,07,29,15.20
2015,06,11,07,30,15.30
2015,06,11,07,31,15.40
2015,06,11,07,32,15.50
2015,06,11,07,33,15.60
2015,06,11,07,34,15.70
2015,06,11,07,35,15.70
2015,06,11,07,36,15.80
2015,06,11,07,37,15.80
2015,06,11,07,38,15.80
2015,06,11,07,39,15.80
2015,06,11,07,40,15.80
2015,06,11,07,41,15.80
2015,06,11,07,42,15.80
2015,06,11,07,43,15.80
2015,06,11,07,44,15.90
2015,06,11,07,45,16.00
2015,06,11,07,46,16.10
2015,06,11,07,47,16.10
2015,06,11,07,48,16.20
2015,06,11,07,49,16.30
2015,06,11,07,50,16.30
2015,06,11,07,51,16.40
2015,06,11,07,52,16.40
2015,06,11,07,53,16.50
2015,06,11,07,54,16.60
2015,06,11,07,55,16.70
2015,06,11,07,56,16.70
2015,06,11,07,57,16.80
2015,06,11,07,58,16.90
2015,06,11,07,59,16.90
2015,06,11,08,00,17.00
2015,06,11,08,01,17.10
2015,06,11,08,02,17.20
2015,06,11,08,03,17.20
2015,06,11,08,04,17.20
2015,06,11,08,05,17.20
2015,06,11,08,06,17.20
2015,06,11,08,07,17.30
2015,06,11,08,08,17.30
2015,06,11,08,09,17.30
2015,06,11,08,10,17.40
2015,06,11,08,11,17.50
2015,06,11,08,12,17.50
2015,06,11,08,13,17.50
2015,06,11,08,14,17.60
2015,06,11,08,15,17.60
2015,06,11,08,16,17.70
2015,06,11,08,17,17.70
2015,06,11,08,18,17.70
2015,06,11,08,19,17.80
2015,06,11,08,20,17.80
2015,06,11,08,21,17.80
2015,06,11,08,22,17.60
2015,06,11,08,23,17.40
2015,06,11,08,24,17.20
2015,06,11,08,25,17.00
2015,06,11,08,26,16.70
2015,06,11,08,27,16.60
2015,06,11,08,28,16.50
2015,06,11,08,29,16.40
2015,06,11,08,30,16.20
2015,06,11,08,31,16.10
2015,06,11,08,32,16.10
2015,06,11,08,33,16.10
2015,06,11,08,34,16.10
2015,06,11,08,35,16.20
2015,06,11,08,36,16.20
2015,06,11,08,37,16.20
2015,06,11,08,38,16.20
2015,06,11,08,39,16.10
2015,06,11,08,40,16.10
2015,06,11,08,41,16.10
2015,06,11,08,42,16.10
2015,06,11,08,43,16.00
2015,06,11,08,44,16.00
2015,06,11,08,45,16.10
2015,06,11,08,46,16.10
2015,06,11,08,47,16.10
2015,06,11,08,48,16.10
2015,06,11,08,49,16.20
2015,06,11,08,50,16.20
2015,06,11,08,51,16.30
2015,06,11,08,52,16.30
2015,06,11,08,53,16.40
2015,06,11,08,54,16.40
2015,06,11,08,55,16.50
2015,06,11,08,56,16.60
2015,06,11,08,57,16.70
2015,06,11,08,58,16.70
2015,06,11,08,59,16.70
2015,06,11,09,00,16.70
2015,06,11,09,01,16.70
2015,06,11,09,02,16.70
2015,06,11,09,03,16.80
2015,06,11,09,04,16.90
2015,06,11,09,05,16.90
2015,06,11,09,06,17.00
2015,06,11,09,07,17.10
2015,06,11,09,08,17.10
2015,06,11,09,09,17.20
2015,06,11,09,10,17.30
2015,06,11,09,11,17.30
2015,06,11,09,12,17.30
2015,06,11,09,13,17.30
2015,06,11,09,14,17.30
2015,06,11,09,15,17.30
2015,06,11,09,16,17.40
2015,06,11,09,17,17.50
2015,06,11,09,18,17.60
2015,06,11,09,19,17.60
2015,06,11,09,20,17.60
2015,06,11,09,21,17.70
2015,06,11,09,22,17.70
2015,06,11,09,23,17.80
2015,06,11,09,24,17.70
2015,06,11,09,25,17.70
2015,06,11,09,26,17.60
2015,06,11,09,27,17.60
2015,06,11,09,28,17.70
2015,06,11,09,29,17.70
2015,06,11,09,30,17.80
2015,06,11,09,31,17.90
2015,06,11,09,32,17.90
2015,06,11,09,33,17.90
2015,06,11,09,34,17.90
2015,06,11,09,35,17.90
2015,06,11,09,36,17.90
2015,06,11,09,37,17.80
2015,06,11,09,38,17.90
2015,06,11,09,39,17.90
2015,06,11,09,40,17.90
2015,06,11,09,41,17.90
2015,06,11,09,42,18.00
2015,06,11,09,43,18.10
2015,06,11,09,44,18.20
2015,06,11,09,45,18.30
2015,06,11,09,46,18.40
2015,06,11,09,47,18.50
2015,06,11,09,48,18.50
2015,06,11,09,49,18.60
2015,06,11,09,50,18.60
2015,06,11,09,51,18.70
2015,06,11,09,52,18.60
2015,06,11,09,53,18.60
2015,06,11,09,54,18.60
2015,06,11,09,55,18.70
2015,06,11,09,56,18.70
2015,06,11,09,57,18.70
2015,06,11,09,58,18.80
2015,06,11,09,59,18.80
2015,06,11,10,00,18.70
2015,06,11,10,01,18.70
2015,06,11,10,02,18.70
2015,06,11,10,03,18.80
2015,06,11,10,04,18.80
2015,06,11,10,05,18.80
2015,06,11,10,06,18.70
2015,06,11,10,07,18.70
2015,06,11,10,08,18.60
2015,06,11,10,09,18.70
2015,06,11,10,10,18.70
2015,06,11,10,11,18.80
2015,06,11,10,12,18.80
2015,06,11,10,13,18.90
2015,06,11,10,14,18.90
2015,06,11,10,15,18.90
2015,06,11,10,16,18.90
2015,06,11,10,17,18.80
2015,06,11,10,18,18.70
2015,06,11,10,19,18.60
2015,06,11,10,20,18.50
2015,06,11,10,21,18.50
2015,06,11,10,22,18.50
2015,06,11,10,23,18.50
2015,06,11,10,24,18.50
2015,06,11,10,25,18.50
2015,06,11,10,26,18.40
2015,06,11,10,27,18.40
2015,06,11,10,28,18.40
2015,06,11,10,29,18.30
2015,06,11,10,30,18.20
2015,06,11,10,31,18.20
2015,06,11,10,32,18.20
2015,06,11,10,33,18.20
2015,06,11,10,34,18.20
2015,06,11,10,35,18.20
2015,06,11,10,36,18.10
2015,06,11,10,37,18.00
2015,06,11,10,38,17.90
2015,06,11,10,39,17.90
2015,06,11,10,40,17.90
2015,06,11,10,41,17.90
2015,06,11,10,42,17.90
2015,06,11,10,43,18.00
2015,06,11,10,44,18.10
2015,06,11,10,45,18.20
2015,06,11,10,46,18.30
2015,06,11,10,47,18.40
2015,06,11,10,48,18.40
2015,06,11,10,49,18.40
2015,06,11,10,50,18.40
2015,06,11,10,51,18.50
2015,06,11,10,52,18.50
2015,06,11,10,53,18.60
2015,06,11,10,54,18.60
2015,06,11,10,55,18.70
2015,06,11,10,56,18.70
2015,06,11,10,57,18.80
2015,06,11,10,58,18.80
2015,06,11,10,59,18.80
2015,06,11,11,00,18.90
2015,06,11,11,01,18.90
2015,06,11,11,02,18.90
2015,06,11,11,03,18.90
2015,06,11,11,04,18.90
2015,06,11,11,05,18.90
2015,06,11,11,06,18.90
2015,06,11,11,07,19.00
2015,06,11,11,08,19.10
2015,06,11,11,09,19.10
2015,06,11,11,10,19.10
2015,06,11,11,11,19.20
2015,06,11,11,12,19.30
2015,06,11,11,13,19.40
2015,06,11,11,14,19.50
2015,06,11,11,15,19.60
2015,06,11,11,16,19.60
2015,06,11,11,17,19.60
2015,06,11,11,18,19.60
2015,06,11,11,19,19.70
2015,06,11,11,20,19.70
2015,06,11,11,21,19.80
2015,06,11,11,22,19.80
2015,06,11,11,23,19.90
2015,06,11,11,24,19.90
2015,06,11,11,25,19.90
2015,06,11,11,26,19.90
2015,06,11,11,27,20.10
2015,06,11,11,28,20.10
2015,06,11,11,29,20.20
2015,06,11,11,30,20.20
2015,06,11,11,31,20.20
2015,06,11,11,32,20.20
2015,06,11,11,33,20.20
2015,06,11,11,34,20.20
2015,06,11,11,35,20.20
2015,06,11,11,36,20.30
2015,06,11,11,37,20.40
2015,06,11,11,38,20.50
2015,06,11,11,39,20.70
2015,06,11,11,40,20.70
2015,06,11,11,41,20.70
2015,06,11,11,42,20.70
2015,06,11,11,43,20.50
2015,06,11,11,44,20.30
2015,06,11,11,45,20.20
2015,06,11,11,46,20.20
2015,06,11,11,47,20.40
2015,06,11,11,48,20.40
2015,06,11,11,49,20.20
2015,06,11,11,50,20.30
2015,06,11,11,51,20.30
2015,06,11,11,52,20.30
2015,06,11,11,53,20.20
2015,06,11,11,54,20.20
2015,06,11,11,55,20.20
2015,06,11,11,56,20.20
2015,06,11,11,57,20.20
2015,06,11,11,58,20.30
2015,06,11,11,59,20.30
2015,06,11,12,00,20.30
2015,06,11,12,01,20.20
2015,06,11,12,02,19.90
2015,06,11,12,03,19.90
2015,06,11,12,04,20.00
2015,06,11,12,05,20.10
2015,06,11,12,06,20.20
2015,06,11,12,07,20.00
2015,06,11,12,08,19.90
2015,06,11,12,09,19.90
2015,06,11,12,10,20.00
2015,06,11,12,11,20.00
2015,06,11,12,12,19.90
2015,06,11,12,13,20.00
2015,06,11,12,14,20.10
2015,06,11,12,15,20.10
2015,06,11,12,16,19.90
2015,06,11,12,17,19.80
2015,06,11,12,18,19.70
2015,06,11,12,19,19.70
2015,06,11,12,20,19.70
2015,06,11,12,21,19.70
2015,06,11,12,22,19.70
2015,06,11,12,23,19.80
2015,06,11,12,24,19.80
2015,06,11,12,25,19.80
2015,06,11,12,26,19.80
2015,06,11,12,27,19.80
2015,06,11,12,28,19.90
2015,06,11,12,29,19.90
2015,06,11,12,30,20.00
2015,06,11,12,31,20.10
2015,06,11,12,32,20.20
2015,06,11,12,33,20.30
2015,06,11,12,34,20.40
2015,06,11,12,35,20.50
2015,06,11,12,36,20.60
2015,06,11,12,37,20.60
2015,06,11,12,38,20.50
2015,06,11,12,39,20.60
2015,06,11,12,40,20.60
2015,06,11,12,41,20.40
2015,06,11,12,42,20.40
2015,06,11,12,43,20.50
2015,06,11,12,44,20.70
2015,06,11,12,45,20.70
2015,06,11,12,46,20.60
2015,06,11,12,47,20.50
2015,06,11,12,48,20.50
2015,06,11,12,49,20.50
2015,06,11,12,50,20.60
2015,06,11,12,51,20.40
2015,06,11,12,52,20.20
2015,06,11,12,53,20.20
2015,06,11,12,54,20.20
2015,06,11,12,55,20.20
2015,06,11,12,56,20.30
2015,06,11,12,57,20.50
2015,06,11,12,58,20.50
2015,06,11,12,59,20.60
2015,06,11,13,00,20.70
2015,06,11,13,01,20.70
2015,06,11,13,02,20.80
2015,06,11,13,03,20.90
2015,06,11,13,04,20.90
2015,06,11,13,05,20.90
2015,06,11,13,06,20.90
2015,06,11,13,07,20.90
2015,06,11,13,08,20.90
2015,06,11,13,09,21.00
2015,06,11,13,10,20.90
2015,06,11,13,11,20.90
2015,06,11,13,12,20.80
2015,06,11,13,13,20.80
2015,06,11,13,14,20.80
2015,06,11,13,15,20.80
2015,06,11,13,16,20.70
2015,06,11,13,17,20.70
2015,06,11,13,18,20.80
2015,06,11,13,19,20.80
2015,06,11,13,20,20.90
2015,06,11,13,21,21.00
2015,06,11,13,22,21.00
2015,06,11,13,23,21.10
2015,06,11,13,24,21.10
2015,06,11,13,25,21.10
2015,06,11,13,26,21.10
2015,06,11,13,27,21.10
2015,06,11,13,28,21.20
2015,06,11,13,29,21.30
2015,06,11,13,30,21.30
2015,06,11,13,31,21.10
2015,06,11,13,32,21.00
2015,06,11,13,33,20.90
2015,06,11,13,34,20.90
2015,06,11,13,35,20.90
2015,06,11,13,36,21.00
2015,06,11,13,37,21.00
2015,06,11,13,38,21.10
2015,06,11,13,39,21.10
2015,06,11,13,40,21.10
2015,06,11,13,41,21.20
2015,06,11,13,42,21.20
2015,06,11,13,43,21.20
2015,06,11,13,44,21.20
2015,06,11,13,45,21.00
2015,06,11,13,46,20.90
2015,06,11,13,47,20.80
2015,06,11,13,48,20.70
2015,06,11,13,49,20.60
2015,06,11,13,50,20.60
2015,06,11,13,51,20.60
2015,06,11,13,52,20.60
2015,06,11,13,53,20.50
2015,06,11,13,54,20.50
2015,06,11,13,55,20.50
2015,06,11,13,56,20.50
2015,06,11,13,57,20.60
2015,06,11,13,58,20.60
2015,06,11,13,59,20.60
2015,06,11,14,00,20.60
2015,06,11,14,01,20.50
2015,06,11,14,02,20.50
2015,06,11,14,03,20.40
2015,06,11,14,04,20.30
2015,06,11,14,05,20.30
2015,06,11,14,06,20.40
2015,06,11,14,07,20.50
2015,06,11,14,08,20.60
2015,06,11,14,09,20.70
2015,06,11,14,10,20.70
2015,06,11,14,11,20.60
2015,06,11,14,12,20.60
2015,06,11,14,13,20.60
2015,06,11,14,14,20.70
2015,06,11,14,15,20.70
2015,06,11,14,16,20.70
2015,06,11,14,17,20.70
2015,06,11,14,18,20.70
2015,06,11,14,19,20.70
2015,06,11,14,20,20.70
2015,06,11,14,21,20.60
2015,06,11,14,22,20.50
2015,06,11,14,23,20.50
2015,06,11,14,24,20.60
2015,06,11,14,25,20.70
2015,06,11,14,26,20.80
2015,06,11,14,27,20.90
2015,06,11,14,28,20.90
2015,06,11,14,29,20.90
2015,06,11,14,30,21.00
2015,06,11,14,31,20.90
2015,06,11,14,32,20.80
2015,06,11,14,33,20.80
2015,06,11,14,34,20.80
2015,06,11,14,35,20.80
2015,06,11,14,36,20.80
2015,06,11,14,37,20.90
2015,06,11,14,38,20.80
2015,06,11,14,39,20.70
2015,06,11,14,40,20.70
2015,06,11,14,41,20.70
2015,06,11,14,42,20.60
2015,06,11,14,43,20.60
2015,06,11,14,44,20.60
2015,06,11,14,45,20.50
2015,06,11,14,46,20.40
2015,06,11,14,47,20.30
2015,06,11,14,48,20.30
2015,06,11,14,49,20.30
2015,06,11,14,50,20.20
2015,06,11,14,51,20.20
2015,06,11,14,52,20.20
2015,06,11,14,53,20.10
2015,06,11,14,54,20.10
2015,06,11,14,55,20.20
2015,06,11,14,56,20.20
2015,06,11,14,57,20.20
2015,06,11,14,58,20.20
2015,06,11,14,59,20.20
2015,06,11,15,00,20.10
2015,06,11,15,01,20.00
2015,06,11,15,02,20.10
2015,06,11,15,03,20.20
2015,06,11,15,04,20.20
2015,06,11,15,05,20.40
2015,06,11,15,06,20.50
2015,06,11,15,07,20.50
2015,06,11,15,08,20.50
2015,06,11,15,09,20.50
2015,06,11,15,10,20.50
2015,06,11,15,11,20.50
2015,06,11,15,12,20.40
2015,06,11,15,13,20.40
2015,06,11,15,14,20.40
2015,06,11,15,15,20.40
2015,06,11,15,16,20.40
2015,06,11,15,17,20.20
2015,06,11,15,18,20.20
2015,06,11,15,19,20.20
2015,06,11,15,20,20.20
2015,06,11,15,21,20.20
2015,06,11,15,22,20.20
2015,06,11,15,23,20.20
2015,06,11,15,24,20.20
2015,06,11,15,25,20.30
2015,06,11,15,26,20.30
2015,06,11,15,27,20.40
2015,06,11,15,28,20.40
2015,06,11,15,29,20.50
2015,06,11,15,30,20.50
2015,06,11,15,31,20.60
2015,06,11,15,32,20.50
2015,06,11,15,33,20.50
2015,06,11,15,34,20.50
2015,06,11,15,35,20.50
2015,06,11,15,36,20.40
2015,06,11,15,37,20.40
2015,06,11,15,38,20.50
2015,06,11,15,39,20.50
2015,06,11,15,40,20.60
2015,06,11,15,41,20.60
2015,06,11,15,42,20.70
2015,06,11,15,43,20.80
2015,06,11,15,44,20.80
2015,06,11,15,45,20.90
2015,06,11,15,46,21.00
2015,06,11,15,47,21.00
2015,06,11,15,48,21.00
2015,06,11,15,49,21.00
2015,06,11,15,50,21.10
2015,06,11,15,51,21.10
2015,06,11,15,52,21.20
2015,06,11,15,53,21.20
2015,06,11,15,54,21.30
2015,06,11,15,55,21.30
2015,06,11,15,56,21.30
2015,06,11,15,57,21.40
2015,06,11,15,58,21.40
2015,06,11,15,59,21.30
2015,06,11,16,00,21.30
2015,06,11,16,01,21.30
2015,06,11,16,02,21.30
2015,06,11,16,03,21.30
2015,06,11,16,04,21.30
2015,06,11,16,05,21.30
2015,06,11,16,06,21.30
2015,06,11,16,07,21.30
2015,06,11,16,08,21.30
2015,06,11,16,09,21.30
2015,06,11,16,10,21.40
2015,06,11,16,11,21.40
2015,06,11,16,12,21.40
2015,06,11,16,13,21.30
2015,06,11,16,14,21.30
2015,06,11,16,15,21.20
2015,06,11,16,16,21.10
2015,06,11,16,17,21.00
2015,06,11,16,18,20.80
2015,06,11,16,19,20.80
2015,06,11,16,20,20.70
2015,06,11,16,21,20.60
2015,06,11,16,22,20.50
2015,06,11,16,23,20.50
2015,06,11,16,24,20.40
2015,06,11,16,25,20.20
2015,06,11,16,26,20.20
2015,06,11,16,27,20.00
2015,06,11,16,28,19.90
2015,06,11,16,29,19.90
2015,06,11,16,30,19.90
2015,06,11,16,31,19.90
2015,06,11,16,32,19.90
2015,06,11,16,33,19.90
2015,06,11,16,34,19.90
2015,06,11,16,35,19.90
2015,06,11,16,36,19.90
2015,06,11,16,37,19.90
2015,06,11,16,38,19.90
2015,06,11,16,39,19.90
2015,06,11,16,40,19.80
2015,06,11,16,41,19.70
2015,06,11,16,42,19.70
2015,06,11,16,43,19.70
2015,06,11,16,44,19.70
2015,06,11,16,45,19.80
2015,06,11,16,46,19.80
2015,06,11,16,47,19.90
2015,06,11,16,48,19.90
2015,06,11,16,49,19.90
2015,06,11,16,50,19.90
2015,06,11,16,51,19.90
2015,06,11,16,52,20.00
2015,06,11,16,53,20.10
2015,06,11,16,54,20.10
2015,06,11,16,55,20.20
2015,06,11,16,56,20.20
2015,06,11,16,57,20.20
2015,06,11,16,58,20.20
2015,06,11,16,59,20.20
2015,06,11,17,00,20.10
2015,06,11,17,01,20.10
2015,06,11,17,02,20.20
2015,06,11,17,03,20.20
2015,06,11,17,04,20.20
2015,06,11,17,05,20.20
2015,06,11,17,06,20.20
2015,06,11,17,07,20.20
2015,06,11,17,08,20.20
2015,06,11,17,09,20.30
2015,06,11,17,10,20.30
2015,06,11,17,11,20.30
2015,06,11,17,12,20.20
2015,06,11,17,13,20.20
2015,06,11,17,14,20.20
2015,06,11,17,15,20.20
2015,06,11,17,16,20.20
2015,06,11,17,17,20.20
2015,06,11,17,18,20.10
2015,06,11,17,19,20.00